Regional Weather Roundup
Issued by NWS

Home | Current Version | Previous Version | Graphics & Text | Print | Product List | Glossary On
Versions: 1 2 3 4 5 6 7 8 9 10 11 12 13 14 15 16 17 18 19 20 21 22 23 24 25 26 27 28 29 30 31 32 33 34 35 36 37 38 39 40 41 42 43 44 45 46 47 48 49 50
000
ASUS45 KABQ 291801
RWRNM
NEW MEXICO REGIONAL WEATHER ROUNDUP
NATIONAL WEATHER SERVICE ALBUQUERQUE NM
1200 PM MDT SUN MAY 29 2016

NOTE: "FAIR" MEANS FEW OR NO CLOUDS BELOW 12,000 FEET AGL WITH NO
       SIGNIFICANT WEATHER OR OBSTRUCTIONS TO VISION.

      THIS PRODUCT IS RELEASED AS TWO VERSIONS.  ONE VERSION NEAR
      THE TOP OF THE HOUR CONTAINING PRELIMINARY DATA FROM ALBUQUERQUE
      AND OTHER STATIONS.  A FINAL VERSION WITH ADDITIONAL DATA IS
      ISSUED ABOUT 10 MINUTES AFTER THE HOUR.

NMZ501-503-504-510>518-291900-
NORTHWEST PLATEAU/NORTHCENTRAL MOUNTAINS

CITY           SKY/WX    TMP DP  RH WIND       PRES   REMARKS
FARMINGTON     FAIR      76  22  13 VRB5      30.13F
6HR MIN TEMP:  50; 6HR MAX TEMP:  77;

SANTA FE       FAIR      77  19  11 SE21G29   30.21F
6HR MIN TEMP:  49; 6HR MAX TEMP:  78;

TAOS           FAIR      72  19  14 SW10G23   30.26F

$$
NMZ402-403-502-505>509-291900-
WESTCENTRAL MOUNTAINS/SOUTHWEST MOUNTAINS

CITY           SKY/WX    TMP DP  RH WIND       PRES   REMARKS
GALLUP         FAIR      73  20  13 S7        30.20F
6HR MIN TEMP:  37; 6HR MAX TEMP:  74;

GRANTS         FAIR      76  14   9 SE10G18   30.21F

$$
NMZ407-409-411-412-291900-
SOUTHERN DESERTS

CITY           SKY/WX    TMP DP  RH WIND       PRES   REMARKS
LORDSBURG      FAIR      84  14   7 S9G18     30.11F
DEMING         FAIR      85  16   7 SW12G17   30.13F
6HR MIN TEMP:  49; 6HR MAX TEMP:  85;

HOLLOMAN AFB   FAIR      86  13   6 W12       30.10F
ALAMOGORDO     FAIR      84  18   8 SW7       30.13S
T OR C         FAIR      83  15   8 SE12G21   30.13F
6HR MIN TEMP:  57; 6HR MAX TEMP:  83;


$$
NMZ519>523-291900-
CENTRAL VALLEYS/CENTRAL HIGHLANDS

CITY           SKY/WX    TMP DP  RH WIND       PRES   REMARKS
ALBUQUERQUE    FAIR      79  15   9 S13G22    30.17F
6HR MIN TEMP:  56; 6HR MAX TEMP:  79;

DOUBLE EAGLE   MOSUNNY   77  18  10 S12G23    30.20F
CLINES CORNERS FAIR      71  32  23 VRB5G18   30.27F
6HR MIN TEMP:  48; 6HR MAX TEMP:  72;

BELEN          FAIR      81  14   8 S9        30.15F
6HR MIN TEMP:  46; 6HR MAX TEMP:  81;

SOCORRO        NOT AVBL

$$
NMZ524>526-539-540-291900-
SOUTHCENTRAL MOUNTAINS

CITY           SKY/WX    TMP DP  RH WIND       PRES   REMARKS
RUIDOSO        NOT AVBL

$$
NMZ527>531-291900-
NORTHEAST HIGHLANDS/NORTHEAST PLAINS

CITY           SKY/WX    TMP DP  RH WIND       PRES   REMARKS
LAS VEGAS      FAIR      68  46  45 S14G21    30.29F
6HR MIN TEMP:  39; 6HR MAX TEMP:  69;

RATON          FAIR      71  40  32 S13G21    30.23F
6HR MIN TEMP:  43; 6HR MAX TEMP:  71;

CLAYTON        FAIR      78  56  46 S18G25    30.19F
6HR MIN TEMP:  51; 6HR MAX TEMP:  78;


$$
NMZ532>537-291900-
EASTCENTRAL PLAINS

CITY           SKY/WX    TMP DP  RH WIND       PRES   REMARKS
TUCUMCARI      TSTM      68  61  78 E10       30.14S
6HR MIN TEMP:  60; 6HR MAX TEMP:  75; 6HR PCP:  0.05;

CANNON AFB     PTSUNNY   74  62  67 SW10      30.17F
6HR MIN TEMP:  56; 6HR MAX TEMP:  74;

CLOVIS AIRPORT FAIR      73  61  64 SE8       30.17F

$$
NMZ028-029-538-291900-
SOUTHEAST PLAINS

CITY           SKY/WX    TMP DP  RH WIND       PRES   REMARKS
ROSWELL        FAIR      81  59  47 S13       30.12F
6HR MIN TEMP:  66; 6HR MAX TEMP:  81;

ARTESIA        FAIR      82  61  47 SE10G18   30.11F
CARLSBAD       FAIR      84  61  45 S12       30.09F
6HR MIN TEMP:  71; 6HR MAX TEMP:  84;

HOBBS          MOSUNNY   77  64  65 SE15      30.16F


$$




USA.gov is the U.S. government's official web portal to all federal, state and local government web resources and services.